Total_Precipitation_Accumulation
2.24 2.20 2.12 2.08 1.94 2.03 2.38 2.62 2.47 2.52 2.47 2.29 2.04 1.86 1.73 1.65 1.58 1.69 1.84 2.03 2.03 2.03 2.19 2.30 2.13 1.92 1.80 1.66 1.50 1.33 1.23 1.18 1.05 0.85 0.73 0.62 0.52 0.52 0.55 0.60 0.59 0.52 0.50
2.65 2.76 2.65 2.50 2.19 2.11 2.19 2.47 2.55 2.74 2.69 2.49 1.91 1.79 1.78 1.80 1.82 1.78 1.89 2.38 2.40 2.01 1.96 2.14 2.27 2.25 2.09 1.92 1.74 1.55 1.42 1.30 1.09 0.85 0.78 0.69 0.57 0.51 0.57 0.66 0.66 0.53 0.41
2.82 2.81 2.62 2.29 2.08 2.09 2.22 2.17 2.19 2.47 2.29 2.15 2.01 2.08 2.07 2.00 1.86 1.84 1.90 2.26 2.27 1.91 1.72 1.75 1.98 2.14 2.25 2.32 2.18 2.06 1.82 1.53 1.25 0.98 0.83 0.69 0.58 0.50 0.49 0.60 0.69 0.59 0.43
2.42 2.50 2.18 1.85 1.94 2.10 2.18 2.24 2.13 2.23 2.24 2.31 2.32 2.27 2.18 2.05 1.70 1.58 1.49 1.53 1.69 1.43 1.53 1.73 1.74 1.77 2.05 2.42 2.57 2.76 2.51 1.97 1.52 1.18 0.96 0.77 0.63 0.50 0.44 0.48 0.58 0.56 0.45
1.88 2.03 1.83 1.77 1.82 1.97 2.00 1.86 2.10 2.28 2.26 2.29 2.17 2.17 1.84 1.69 1.48 1.25 1.17 1.09 1.18 1.26 1.27 1.38 1.47 1.53 1.91 2.45 2.92 3.29 3.24 2.70 2.10 1.66 1.36 1.05 0.86 0.63 0.50 0.45 0.47 0.48 0.43
1.70 1.88 1.77 1.69 1.74 1.87 1.93 2.04 2.24 2.33 2.09 2.02 1.86 1.75 1.47 1.16 1.07 1.00 0.85 0.86 0.94 0.91 0.98 1.15 1.41 1.29 1.70 2.16 2.67 3.16 3.55 3.34 2.66 2.15 1.95 1.68 1.41 1.04 0.70 0.51 0.44 0.44 0.39
1.78 1.92 1.77 1.78 1.67 1.71 1.71 1.80 1.94 2.00 1.74 1.87 2.23 1.86 1.30 1.00 0.94 0.83 0.75 0.76 0.77 0.83 1.01 1.29 1.47 1.55 1.67 1.72 1.93 2.38 3.11 3.48 3.20 2.66 2.37 2.14 1.91 1.50 1.02 0.75 0.59 0.46 0.42
1.68 1.67 1.72 1.60 1.56 1.64 1.63 1.67 1.83 1.79 1.60 1.80 2.19 2.29 1.80 1.41 1.09 0.76 0.72 0.73 0.80 0.94 1.00 1.09 1.45 1.72 1.74 2.13 1.77 1.75 2.32 2.95 3.24 3.07 2.80 2.36 2.06 1.74 1.38 1.14 0.91 0.71 0.60
1.47 1.43 1.43 1.47 1.55 1.40 1.49 1.60 1.75 1.87 1.73 1.65 1.90 2.27 2.05 1.68 1.35 1.01 0.87 0.95 1.08 1.21 1.23 1.37 1.48 1.66 1.80 2.24 2.18 1.96 1.92 2.11 2.73 3.34 3.39 2.83 2.17 1.76 1.62 1.58 1.46 1.13 0.89
1.35 1.30 1.28 1.41 1.47 1.41 1.58 1.36 1.46 1.71 1.87 1.69 1.68 1.73 1.73 1.86 1.86 1.47 1.08 0.97 1.10 1.23 1.29 1.29 1.38 1.61 1.76 2.01 2.35 2.14 1.88 1.70 1.95 2.72 3.32 3.28 2.66 1.97 1.68 1.77 2.07 1.92 1.47
1.33 1.17 1.22 1.35 1.43 1.43 1.50 1.48 1.56 1.50 1.58 1.58 1.61 1.60 1.69 1.86 1.78 1.70 1.46 1.21 1.16 1.05 1.12 1.22 1.39 1.57 1.62 1.83 2.20 1.99 1.92 1.69 1.62 1.85 2.33 2.69 2.72 2.42 2.11 2.12 2.60 2.97 2.74
1.33 1.17 1.20 1.38 1.41 1.42 1.44 1.46 1.46 1.41 1.48 1.55 1.58 1.60 1.72 1.69 1.62 1.75 1.62 1.41 1.33 1.10 1.13 1.24 1.39 1.50 1.52 1.60 1.47 1.45 1.53 1.63 1.58 1.47 1.51 1.72 2.07 2.32 2.37 2.59 3.06 3.58 3.84
1.18 1.15 1.17 1.41 1.50 1.48 1.46 1.51 1.49 1.48 1.57 1.62 1.61 1.65 1.69 1.62 1.61 1.76 1.75 1.50 1.41 1.27 1.39 1.40 1.38 1.50 1.46 1.62 1.56 1.39 1.29 1.39 1.33 1.25 1.21 1.27 1.48 1.75 1.99 2.22 2.62 3.13 3.60
1.14 1.32 1.42 1.43 1.42 1.46 1.47 1.69 1.58 1.59 1.66 1.68 1.58 1.83 1.80 1.63 1.79 1.94 2.04 2.06 1.84 1.70 1.76 1.60 1.43 1.44 1.46 1.48 1.52 1.49 1.34 1.23 1.10 1.03 1.00 1.03 1.10 1.25 1.42 1.60 1.84 2.08 2.34
1.22 1.35 1.44 1.52 1.47 1.47 1.55 1.77 1.75 1.78 1.85 1.79 1.78 1.97 1.92 1.81 1.80 1.79 2.00 2.25 2.33 2.14 2.03 1.84 1.64 1.53 1.48 1.46 1.55 1.42 1.42 1.45 1.20 1.00 0.93 0.92 0.97 1.03 1.06 1.08 1.18 1.28 1.41
1.29 1.33 1.28 1.33 1.34 1.36 1.49 1.77 1.80 1.84 1.97 1.94 1.92 1.98 1.98 1.89 1.94 1.88 1.95 2.20 2.39 2.42 2.16 1.69 1.66 1.59 1.54 1.37 1.47 1.37 1.42 1.52 1.29 1.08 0.95 0.89 0.88 0.91 0.97 1.04 1.13 1.19 1.26
1.32 1.27 1.22 1.24 1.24 1.21 1.31 1.50 1.65 1.83 1.94 1.99 1.97 2.01 2.01 2.09 2.11 1.98 2.03 2.09 2.26 2.44 2.18 1.75 1.82 1.97 1.92 1.72 1.57 1.47 1.38 1.34 1.29 1.23 1.00 0.93 0.93 0.93 1.00 1.06 1.10 1.15 1.23
1.33 1.33 1.35 1.32 1.20 1.17 1.27 1.41 1.57 1.75 1.92 2.02 2.11 2.18 2.01 2.06 2.17 2.09 2.07 2.09 2.18 2.42 2.36 2.23 2.20 2.25 2.18 1.95 1.74 1.52 1.23 1.12 1.18 1.38 1.17 1.05 1.01 1.02 1.04 1.03 0.98 0.98 1.01
1.42 1.44 1.45 1.40 1.36 1.42 1.52 1.59 1.64 1.77 1.91 2.00 2.08 2.06 2.01 2.12 2.04 2.08 2.13 2.11 2.10 2.12 2.23 2.23 2.15 2.24 2.18 1.95 1.74 1.49 1.27 1.28 1.19 1.25 1.21 1.12 1.07 1.04 1.04 0.99 0.93 0.91 0.93
1.36 1.39 1.39 1.46 1.51 1.57 1.62 1.62 1.61 1.64 1.72 1.80 1.79 1.70 1.65 1.71 1.78 1.91 1.91 1.91 1.98 2.04 2.12 2.09 2.09 2.17 2.18 2.16 1.97 1.69 1.50 1.40 1.30 1.16 1.17 1.17 1.15 1.11 1.06 0.98 0.88 0.85 0.88
1.23 1.39 1.43 1.52 1.60 1.59 1.50 1.54 1.56 1.48 1.65 1.62 1.49 1.45 1.46 1.55 1.56 1.62 1.55 1.61 1.75 1.84 1.92 2.03 2.11 2.27 2.29 2.37 2.20 1.91 1.73 1.59 1.43 1.27 1.22 1.16 1.15 1.09 1.07 1.06 0.99 0.89 0.83
1.29 1.42 1.46 1.57 1.62 1.48 1.52 1.56 1.58 1.57 1.62 1.57 1.51 1.46 1.35 1.34 1.31 1.34 1.38 1.43 1.55 1.68 1.85 2.01 2.08 2.17 2.23 2.20 2.15 2.01 1.88 1.68 1.45 1.35 1.49 1.47 1.27 1.25 1.35 1.30 1.19 0.94 0.80
1.37 1.44 1.56 1.60 1.60 1.65 1.57 1.47 1.50 1.47 1.53 1.58 1.60 1.60 1.35 1.18 1.25 1.23 1.36 1.33 1.29 1.33 1.43 1.59 1.72 1.85 2.04 2.14 2.22 2.14 2.12 1.99 1.72 1.50 1.46 1.36 1.26 1.31 1.49 1.61 1.35 0.95 0.84
1.50 1.60 1.65 1.58 1.59 1.64 1.56 1.32 1.26 1.19 1.29 1.41 1.50 1.55 1.54 1.44 1.40 1.40 1.45 1.41 1.31 1.27 1.36 1.39 1.47 1.68 1.99 2.24 2.27 2.25 2.27 2.18 1.91 1.59 1.48 1.38 1.25 1.24 1.14 1.15 1.21 0.98 0.82
1.75 1.83 1.89 1.87 1.78 1.75 1.55 1.24 1.13 1.10 1.24 1.32 1.37 1.38 1.36 1.28 1.26 1.18 1.20 1.25 1.25 1.24 1.24 1.27 1.30 1.42 1.65 2.00 2.18 2.23 2.31 2.22 2.01 1.71 1.51 1.46 1.26 1.19 1.11 1.01 1.03 1.09 0.92
2.00 2.04 1.94 1.82 1.73 1.71 1.62 1.30 1.14 1.11 1.26 1.34 1.43 1.42 1.38 1.30 1.24 1.09 1.07 1.13 1.13 1.14 1.18 1.19 1.16 1.14 1.25 1.55 1.85 1.87 1.93 2.05 1.84 1.62 1.30 1.24 1.19 1.12 1.12 0.98 0.88 0.89 0.91